Flag for United Kingdom

Past Weather in Brighton, England, United Kingdom — Yesterday and Last 2 Weeks

Now
61 °F

Clear.


Feels Like: 61 °F
Forecast: 72 / 58 °F
Wind: 10 mph from Northeast

Location: London / Gatwick Airport
Current Time: Sep 20, 2020 at 12:34:01 am
Latest Report: Sep 19, 2020 at 11:50 pm
Visibility: 10 mi
Pressure30.04 "Hg
Humidity: 72%
Dew Point: 52 °F
Location of BrightonLocation

Past Weather in Brighton — Graph

°F

Brighton Temperature Yesterday

Maximum temperature yesterday: 72 °F (at 12:50 pm)
Minimum temperature yesterday: 57 °F (at 4:50 am)
Average temperature yesterday: 64 °F

High & Low Weather Summary for the Past Weeks

 TemperatureHumidityPressure
High84 °F (Sep 15, 3:20 pm)100% (Sep 5, 7:20 am)30.36 "Hg (Sep 5, 7:20 am)
Low43 °F (Sep 11, 5:50 am)35% (Sep 14, 2:20 pm)29.98 "Hg (Sep 19, 1:50 pm)
Average62 °F74%30.17 "Hg
* Reported Sep 4 11:20 pm — Sep 19 11:20 pm, Brighton. Weather by CustomWeather, © 2020

Note: Actual official high and low records may vary slightly from our data, if they occured in-between our weather recording intervals... More about our weather records

Brighton Weather History for the Previous 24 Hours

Scroll right to see more
 ConditionsComfort  
Time TempWeatherWind HumidityBarometerVisibility
11:20 pm
Sat, Sep 19
61 °FClear.10 mph72%30.04 "Hg10 mi
10:50 pm61 °FClear.12 mph72%30.04 "Hg10 mi
10:20 pm63 °FClear.13 mph64%30.04 "Hg10 mi
9:50 pm63 °FClear.12 mph59%30.04 "Hg10 mi
9:20 pm63 °FClear.13 mph64%30.04 "Hg10 mi
8:50 pm64 °FClear.13 mph60%30.01 "Hg10 mi
8:20 pm63 °FClear.14 mph73%30.01 "Hg10 mi
7:50 pm64 °FClear.15 mph68%30.01 "Hg10 mi
7:20 pm64 °FClear.14 mph68%30.01 "Hg10 mi
6:50 pm64 °FSunny.14 mph68%30.01 "Hg10 mi
6:20 pm66 °FSunny.13 mph68%30.01 "Hg10 mi
5:50 pm66 °FSunny.14 mph64%29.98 "Hg10 mi
5:20 pm68 °FSunny.14 mph56%29.98 "Hg10 mi
4:50 pm68 °FSunny.16 mph56%29.98 "Hg10 mi
4:20 pm70 °FSunny.16 mph53%29.98 "Hg10 mi
3:50 pm70 °FSunny.15 mph57%29.98 "Hg10 mi
3:20 pm72 °FSunny.17 mph53%29.98 "Hg10 mi
2:50 pm72 °FSunny.16 mph53%29.98 "Hg10 mi
2:20 pm72 °FSunny.18 mph53%29.98 "Hg10 mi
1:50 pm72 °FSunny.15 mph53%29.98 "Hg10 mi
1:20 pm72 °FSunny.18 mph53%30.01 "Hg10 mi
12:50 pm72 °FSunny.16 mph53%30.01 "Hg10 mi
12:20 pm70 °FSunny.17 mph57%30.01 "Hg10 mi
11:50 am70 °FSunny.20 mph57%30.01 "Hg10 mi
11:20 am70 °FSunny.18 mph57%30.01 "Hg10 mi
10:50 am70 °FSunny.18 mph60%30.01 "Hg10 mi
10:20 am68 °FSunny.14 mph64%30.01 "Hg10 mi
9:50 am64 °FSunny.16 mph73%30.01 "Hg10 mi
9:20 am64 °FSunny.16 mph73%30.01 "Hg10 mi
8:50 am63 °FSunny.10 mph77%30.01 "Hg10 mi
8:20 am61 °FSunny.15 mph83%30.01 "Hg10 mi
7:50 am59 °FSunny.14 mph88%30.01 "Hg10 mi
7:20 am59 °FSunny.14 mph88%30.01 "Hg10 mi
6:50 am57 °FSunny.14 mph88%30.01 "Hg10 mi
6:20 am57 °FClear.14 mph88%30.01 "Hg10 mi
5:50 am57 °FClear.12 mph88%30.01 "Hg10 mi
5:20 am57 °FClear.12 mph88%30.01 "Hg10 mi
4:50 am57 °FClear.12 mph88%30.01 "Hg10 mi
4:20 am59 °FClear.12 mph82%30.04 "Hg10 mi
3:50 am59 °FClear.10 mph82%30.04 "Hg10 mi
3:20 am59 °FClear.10 mph82%30.04 "Hg10 mi
2:50 am59 °FClear.10 mph82%30.04 "Hg10 mi
1:50 am59 °FClear.12 mph82%30.07 "Hg10 mi
1:20 am59 °FClear.10 mph82%30.07 "Hg10 mi
12:50 am59 °FClear.12 mph82%30.07 "Hg10 mi
12:20 am59 °FClear.9 mph82%30.09 "Hg10 mi
Weather by CustomWeather, © 2020

See weather overview